Flag for Guinea Weather past 2 weeks in Conakry, Guinea

Now
81 °F

Passing clouds.


Feels Like: 86 °F
Forecast: 81 / 85 °F
Wind: 5 mph from Southeast

Location: Conakry / Gbessia

Current Time: May 25, 2015 at 3:48:57 AM

Latest Report: May 25, 2015 at 3:00 AM


Visibility: N/A

Pressure: 29.89 "Hg

Humidity: 84%

Dew point: 75 °F

Location of ConakryLocation

Historic Weather in Conakry — Graph

°F

Conakry temperature yesterday

Maximum temperature yesterday: 88 °F (at 1:00 PM)
Minimum temperature yesterday: 79 °F (at 6:00 AM)
Average temperature yesterday: 83 °F

Past Weeks' High & Low Weather Summary

 TemperatureHumidityPressure
High93 °F (May 19, 2:00 PM)100% (May 12, 1:00 AM)30.04 "Hg (May 12, 1:00 AM)
Low73 °F (May 13, 5:00 AM)20% (May 12, 8:00 AM)29.77 "Hg (May 12, 5:00 PM)
Average83 °F78%29.90 "Hg
* Reported May 10 1:00 AM — May 25 1:00 AM, Conakry, Weather by CustomWeather, © 2015

Note: Actual official high and low records may vary slightly from our data, if they occured in-between our weather recording intervals... More about our weather records

Advertising

Conakry weather history for previous 24 hours

 ConditionsComfort  
Time TempWeatherWind HumidityBarometerVisibility
1:00 AM
Mon, May 25
81 °FPassing clouds.5 mph89%29.95 "HgN/A
12:00 AM79 °FPassing clouds.2 mph89%29.95 "HgN/A
11:00 PM
Sun, May 24
79 °FPassing clouds.5 mph94%29.95 "HgN/A
10:00 PM84 °FPassing clouds.9 mph84%29.95 "HgN/A
8:00 PM84 °FPassing clouds.7 mph100%29.89 "HgN/A
7:00 PM84 °FScattered clouds.9 mph79%29.89 "HgN/A
6:00 PM86 °FScattered clouds.12 mph75%29.86 "HgN/A
5:00 PM88 °FScattered clouds.12 mph70%29.86 "HgN/A
4:00 PM86 °FScattered clouds.12 mph75%29.86 "HgN/A
3:00 PM88 °FScattered clouds.12 mph70%29.89 "HgN/A
2:00 PM88 °FPartly sunny.9 mph66%29.92 "HgN/A
1:00 PM88 °FBroken clouds.9 mph70%29.92 "HgN/A
12:00 PM86 °FBroken clouds.7 mph70%29.95 "HgN/A
11:00 AM86 °FBroken clouds.7 mph75%29.98 "HgN/A
10:00 AM84 °FBroken clouds.7 mph79%29.98 "HgN/A
9:00 AM82 °FBroken clouds.5 mph84%29.95 "HgN/A
8:00 AM81 °FPartly sunny.5 mph89%29.95 "HgN/A
7:00 AM79 °FPartly sunny.5 mph89%29.92 "HgN/A
6:00 AM79 °FPassing clouds.No wind94%29.92 "HgN/A
5:00 AM81 °FPassing clouds.5 mph89%29.89 "HgN/A
4:00 AM81 °FPassing clouds.5 mph89%29.89 "HgN/A
3:00 AM81 °FPassing clouds.No wind89%29.89 "HgN/A
Weather by CustomWeather, © 2015

See weather overviewHow to use our weather pages